Meteo Giornale » Osservazioni meteo Svezia » Stockholm-Arlanda

ore: 22:20 - Osservazioni Meteo Stockholm-Arlanda
Lat. 59° 39' N Lon. 17° 57' E Alt. 38 metri s.l.m.

sereno Europe/Stockholm

15 °C

Sereno

Temp. 24 Ore

12 °C

22 °C

Sud-Est

11.1 Km/h

Dew point 5 °C

Umidità 51 %

Visibilità  10 Km

Il sole sorge alle ore 04:13

Il sole tramonta alle ore 21:15

Data e Ora Cielo e Fenomeni T °C DP °C Um. % Pres. hPa Vis. km Vento km/h
Oggi h: 22:20 sereno Sereno 15 5 51 1006 10 SE 11.1
Oggi h: 21:20 sereno Sereno 17 6 48 1006 10 E 13
Oggi h: 20:50 sereno Sereno 18 6 45 1006 10 E 13
Oggi h: 20:20 sereno Sereno 19 6 42 1006 10 E 14.8
Oggi h: 19:50 sereno Sereno 21 6 37 1006 10 E 16.7
Oggi h: 19:20 sereno Sereno 21 5 35 1006 10 E 16.7
Oggi h: 18:50 sereno Sereno 22 5 32 1006 10 E 13
Oggi h: 18:20 sereno Sereno 22 4 30 1006 10 E 13
Oggi h: 17:50 sereno Sereno 22 4 30 1006 10 E 18.5
Oggi h: 17:20 sereno Sereno 22 5 32 1007 10 E 16.7
Oggi h: 16:50 sereno Sereno 22 4 30 1007 10 E 14.8
Oggi h: 16:20 sereno Sereno 22 4 30 1007 10 S/SE 14.8
Oggi h: 15:50 sereno Sereno 22 5 32 1007 10 SE 16.7
Oggi h: 15:20 sereno Sereno 21 7 40 1007 10 SE 20.3
Oggi h: 14:50 sereno Sereno 22 8 40 1007 10 E 20.3
Oggi h: 14:20 sereno Sereno 22 8 40 1007 10 E/SE 18.5
Oggi h: 13:50 sereno Sereno 22 8 40 1008 10 E/SE 20.3
Oggi h: 13:20 sereno Sereno 22 8 40 1008 10 E/SE 16.7
Oggi h: 12:50 sereno Sereno 22 8 40 1008 10 E/SE 16.7
Oggi h: 12:20 sereno Sereno 21 8 43 1008 10 S/SE 20.3
Oggi h: 11:50 sereno Sereno 21 7 40 1008 10 S/SE 20.3
Oggi h: 11:20 sereno Sereno 21 8 43 1008 10 S/SE 18.5
Oggi h: 10:50 sereno Sereno 20 8 45 1008 10 E/SE 18.5
Oggi h: 10:20 sereno Sereno 20 9 49 1008 10 SE 13
Oggi h: 09:50 sereno Sereno 19 8 48 1008 10 E/SE 13
Oggi h: 09:20 sereno Sereno 18 9 55 1008 10 E/SE 13
Oggi h: 08:50 sereno Sereno 17 9 59 1008 10 S/SE 13
Oggi h: 08:20 sereno Sereno 15 9 67 1008 10 E/SE 13
Oggi h: 07:50 sereno Sereno 15 9 67 1008 10 E/SE 14.8
Oggi h: 07:20 sereno Sereno 14 8 67 1008 10 SE 9.3
Oggi h: 06:50 sereno Sereno 14 8 67 1008 10 E/SE 13
Oggi h: 06:20 sereno Sereno 12 8 76 1008 10 S/SE 9.3
Oggi h: 05:50 sereno Sereno 12 7 71 1008 10 SE 14.8
Oggi h: 05:20 sereno Sereno 12 7 71 1008 10 E/NE 11.1
Oggi h: 04:50 sereno Sereno 12 6 66 1008 10 S/SE 11.1
Oggi h: 04:20 sereno Sereno 12 6 66 1008 10 SE 13
Oggi h: 03:50 sereno Sereno 12 6 66 1009 10 SE 11.1
Oggi h: 03:20 sereno Sereno 13 6 62 1009 10 SE 14.8
Oggi h: 02:50 sereno Sereno 13 6 62 1009 10 SE 13
Oggi h: 02:20 sereno Sereno 13 5 58 1009 10 SE 14.8
Oggi h: 01:50 sereno Sereno 13 5 58 1009 10 S/SE 13
Oggi h: 01:20 sereno Sereno 13 5 58 1009 10 SE 13
Oggi h: 00:50 sereno Sereno 14 5 54 1009 10 SE 18.5
Oggi h: 00:20 sereno Sereno 14 5 54 1009 10 SE 11.1
Ieri h: 23:50 sereno Sereno 14 4 50 1009 10 SE 11.1